カタログに戻る

ONEWEB-0495

運用中通信PO
NORAD 54115·PAYLOAD·🇬🇧 United Kingdom

打ち上げ Oct 22, 2022 から Satish Dhawan Space Centre

Loading…

次のパス (今後24時間)

TLE

最新Source: CelesTrak SupGP

元期: Sep 14, 2026, 15:00 UTC

1 54115C 22138C   26257.62550185 -.00000665  00000+0 -16635-2 0  2574
2 54115  87.9109 287.1520 0002183  76.6527  37.1274 13.19729446    15

AllMySatでONEWEB-0495をリアルタイム追跡

Download on the App Store